Simultaneous Nadir Overpasses (SNOs) Predictions

Prediction of SNOs between GOES-16 and FY3D Satellite Orbit:

Table of predicted SNOs for the next 14.0 days since TLE Epoch: 4/24/2021
Index Date Time (GOES-16) GOES-16 Lat,Lon FY3D Lat,Lon Distance(km) Time Diff (sec)
1 04/24/2021 06:21:01 -0.03, -75.18 -0.85, -71.65 403.52 80
2 04/25/2021 18:42:36 0.02, -75.18 -0.36, -76.85 190.52 80
3 04/26/2021 18:26:18 0.03, -75.18 0.67, -72.26 332.90 80
4 04/28/2021 06:47:47 -0.02, -75.20 0.49, -77.44 255.68 80
5 04/29/2021 06:26:09 -0.03, -75.20 -0.54, -72.85 267.64 80
6 04/30/2021 18:47:46 0.02, -75.20 -0.60, -78.07 326.27 80
7 05/01/2021 18:31:28 0.02, -75.21 0.43, -73.48 197.57 80
8 05/03/2021 06:52:56 -0.01, -75.24 0.73, -78.66 389.87 80
9 05/04/2021 06:31:19 -0.01, -75.25 -0.30, -74.08 134.32 80
10 05/05/2021 18:52:54 0.01, -75.26 -0.89, -79.28 458.43 80
11 05/06/2021 18:36:37 0.01, -75.27 0.14, -74.69 66.49 80
